Simultaneous Nadir Overpasses (SNOs) Predictions

Prediction of SNOs between LANDSAT-8 and METOP-A Satellite Orbit:

Table of predicted SNOs for the next 14.0 days since TLE Epoch: 5/16/2020
Index Date (LANDSAT-8) Time (LANDSAT-8) Lat,Lon (LANDSAT-8) SZA (LANDSAT-8 ) Date (METOP-A) Time (METOP-A) Lat,Lon (METOP-A) SZA (METOP-A ) Distance(km) Time Diff (sec)
1 05/16/2020 09:58:52 81.49, 76.77 65.09 05/16/2020 09:57:39 81.48, 76.82 65.06 1.28 73
2 05/16/2020 10:48:20 -81.47,-116.00 114.98 05/16/2020 10:48:20 -81.48,-115.89 114.96 2.05 0
3 05/16/2020 11:37:41 81.56, 53.69 65.30 05/16/2020 11:38:55 81.44, 53.70 65.27 12.55 74
4 05/19/2020 05:33:10 81.49, 143.10 64.46 05/19/2020 05:32:01 81.48, 143.24 64.44 2.33 69
5 05/19/2020 06:22:38 -81.47, -49.64 115.60 05/19/2020 06:22:42 -81.48, -49.45 115.57 3.35 4
6 05/22/2020 01:07:29 81.48,-150.60 63.87 05/22/2020 01:06:24 81.48,-150.76 63.82 2.61 65
7 05/22/2020 01:56:56 -81.48, 17.08 116.14 05/22/2020 01:57:04 -81.48, 16.98 116.14 1.66 8
8 05/24/2020 20:41:48 81.47, -84.33 63.32 05/24/2020 20:40:45 81.48, -84.35 63.29 1.20 63
9 05/24/2020 21:31:15 -81.48, 83.38 116.68 05/24/2020 21:31:25 -81.48, 83.41 116.67 0.52 10
10 05/27/2020 16:16:08 81.48, -17.69 62.87 05/27/2020 16:15:06 81.48, -17.56 62.85 2.27 62




NCC Satellite Simultaneous Nadir Overpasses (SNOs) Prediction Service
